Regional Weather Roundup
Issued by NWS

Home | Current Version | Previous Version | Text Only | Print | Product List | Glossary On
Versions: 1 2 3 4 5 6 7 8 9 10 11 12 13 14 15 16 17 18 19 20 21 22 23 24 25 26 27 28 29 30 31 32 33 34 35 36 37 38 39 40 41 42 43 44 45 46 47 48 49 50
000
ASUS45 KABQ 280110
RWRNM
WEATHER ROUNDUP FOR NEW MEXICO
NATIONAL WEATHER SERVICE ALBUQUERQUE NM
600 PM MST FRI FEB 27 2015

NOTE: "FAIR" MEANS FEW OR NO CLOUDS BELOW 12,000 FEET AGL WITH NO
       SIGNIFICANT WEATHER OR OBSTRUCTIONS TO VISION.

      THIS PRODUCT IS RELEASED AS TWO VERSIONS.  ONE VERSION NEAR
      THE TOP OF THE HOUR CONTAINING PRELIMINARY DATA FROM ALBUQUERQUE
      AND OTHER STATIONS.  A FINAL VERSION WITH ADDITIONAL DATA IS
      ISSUED ABOUT 10 MINUTES AFTER THE HOUR.

NMZ501-503-504-510>518-280200-
NORTHWEST PLATEAU/NORTHCENTRAL MOUNTAINS

CITY           SKY/WX    TMP DP  RH WIND       PRES   REMARKS
FARMINGTON     FLURRIES  32  29  88 E10       29.76S WCI  24
LOS ALAMOS     LGT SNOW  17  17 100 S10       29.84R VSB 3/4 WCI   4
SANTA FE       LGT SNOW  18  14  84 S14       29.87R VSB 1   WCI   4
TAOS           CLOUDY    21  16  79 W5        29.82S WCI  15
ANGEL FIRE     LGT SNOW  24  21  89 W6        29.78S WCI  16

$$
NMZ402-403-502-505>509-280200-
WESTCENTRAL MOUNTAINS/SOUTHWEST MOUNTAINS

CITY           SKY/WX    TMP DP  RH WIND       PRES   REMARKS
GALLUP         CLOUDY    37  31  78 CALM      29.76R
GRANTS         CLOUDY    24  22  92 S13G21    29.82S WCI  13
SILVER CITY    PTCLDY    46  25  42 S10       29.82F

$$
NMZ407-409-411-412-280200-
SOUTHERN DESERTS

CITY           SKY/WX    TMP DP  RH WIND       PRES   REMARKS
LORDSBURG      FAIR      52  27  37 SE15G23   29.76R
DEMING         CLEAR     51  24  34 SE10      29.81R
LAS CRUCES     PTCLDY    43  24  47 SE14G20   29.86S
HOLLOMAN AFB   MOCLDY    39  23  52 S13       29.90S WCI  32
ALAMOGORDO     PTCLDY    39  23  52 S9        29.92R WCI  33
T OR C         PTCLDY    48  27  44 S7        29.81S

$$
NMZ519>523-280200-
CENTRAL VALLEYS/CENTRAL HIGHLANDS

CITY           SKY/WX    TMP DP  RH WIND       PRES   REMARKS
ALBUQUERQUE    SNOW      24  22  91 N9        29.88F VSB 1/2 WCI  14
DOUBLE EAGLE   LGT SNOW  21  19  93 N9        29.87S VSB 3/4 WCI  11
MORIARTY ARPT  LGT SNOW  16  11  82 SE10      29.93R WCI   3
CLINES CORNERS LGT SNOW  11   6  81 SE12      29.85R WCI  -3
BELEN          LGT SNOW  29  28  98 NE6       29.88S WCI  23
SOCORRO          N/A     35  30  82 CALM      29.87S

$$
NMZ524>526-539-540-280200-
SOUTHCENTRAL MOUNTAINS

CITY           SKY/WX    TMP DP  RH WIND       PRES   REMARKS
RUIDOSO        FOG       14  12  92 SE5       29.92S VSB<1/4 WCI   6

$$
NMZ527>531-280200-
NORTHEAST HIGHLANDS/NORTHEAST PLAINS

CITY           SKY/WX    TMP DP  RH WIND       PRES   REMARKS
LAS VEGAS      SNOW       8   5  87 S16       29.88S VSB 1/2 WCI -10
RATON          LGT SNOW  11   8  88 S13       29.91R FOG     WCI  -4
CLAYTON        LGT SNOW  12   8  84 S22       30.02S FOG     WCI  -7

$$
NMZ532>537-280200-
EASTCENTRAL PLAINS

CITY           SKY/WX    TMP DP  RH WIND       PRES   REMARKS
TUCUMCARI      CLOUDY    16  10  77 S12       30.10S WCI   3
CANNON AFB     FLURRIES  13   9  87 SE12      30.10F WCI  -1
CLOVIS AIRPORT CLOUDY    12   9  85 SE13      30.12R WCI  -3

$$
NMZ028-029-538-280200-
SOUTHEAST PLAINS

CITY           SKY/WX    TMP DP  RH WIND       PRES   REMARKS
ROSWELL        CLOUDY    24  18  77 SE8       30.11S WCI  15
ARTESIA        CLOUDY    25  21  86 SE13      30.13R WCI  13
CARLSBAD       CLOUDY    26  18  71 SE9       30.13R WCI  17
HOBBS          CLOUDY    19  18  93 E10       30.15R WCI   8


$$



USA.gov is the U.S. government's official web portal to all federal, state and local government web resources and services.